San Diego Brown, CA

5:22 PM PST on December 16, 2017 (GMT -0800)
Brown Municipal

Weather History for KSDM - November, 2012

Change the Weather History Date:

Saturday, November 17, 2012

  Actual Average Record
Temperature  
Mean Temperature 62 °F 58 °F  
Max Temperature 71 °F 71 °F 90 °F (2008)
Min Temperature 52 °F 46 °F 36 °F (1958)
Degree Days  
Heating Degree Days 4 7  
Month to date heating degree days 95  
Since 1 July heating degree days 160  
Cooling Degree Days 0 0  
Month to date cooling degree days 12  
Year to date cooling degree days 620  
Growing Degree Days 12 (Base 50)    
Moisture  
Dew Point 54 °F    
Average Humidity 78    
Maximum Humidity 93    
Minimum Humidity 55    
Precipitation  
Precipitation 0.00 in 0.03 in 0.09 in (1955)
Month to date precipitation 0.56  
Year to date precipitation 9.86  
Sea Level Pressure  
Sea Level Pressure 30.08 in    
Wind  
Wind Speed 5 mph (SSW)    
Max Wind Speed 61 mph    
Max Gust Speed 70 mph    
Visibility 10 miles    
Events      
T = Trace of Precipitation, MM = Missing Value Source: NWS Daily Summary

Daily Weather History Graph

Daily Weather History Graph

Search for Another Location

Airport or City:

Trip Planner

Search our weather history database for the weather conditions in past years. The results will help you decide how hot, cold, wet, or windy it might be!

Date:

Astronomy

Nov. 17, 2012 Rise Set
Actual Time 6:20 AM PST 4:45 PM PST
Civil Twilight 5:53 AM PST 5:11 PM PST
Nautical Twilight 5:23 AM PST 5:41 PM PST
Astronomical Twilight 4:54 AM PST 6:11 PM PST
Moon 10:08 AM PST 8:59 PM PST
Length of Visible Light 11h 18m
Length of Day
10h 25m
Waxing Crescent, 21% of the Moon is Illuminated
Nov 17
Waxing Crescent
Nov 20
First Quarter
Nov 28
Full
Dec 6
Last Quarter
Dec 13
New

Hourly Weather History & Observations

Time (PST) Temp. Dew Point Humidity Pressure Visibility Wind Dir Wind Speed Gust Speed Precip Events Conditions
12:53 AM 59.0 °F 53.1 °F 81% 30.06 in 10.0 mi Calm Calm - N/A   Scattered Clouds
1:53 AM 54.0 °F 51.1 °F 90% 30.06 in 10.0 mi ESE 5.8 mph - N/A   Clear
2:53 AM 53.1 °F 50.0 °F 89% 30.06 in 9.0 mi ESE 5.8 mph - N/A   Clear
3:53 AM 55.0 °F 51.1 °F 86% 30.05 in 9.0 mi SE 4.6 mph - N/A   Scattered Clouds
4:53 AM 52.0 °F 50.0 °F 93% 30.06 in 10.0 mi East 5.8 mph - N/A   Partly Cloudy
5:53 AM 54.0 °F 50.0 °F 86% 30.07 in 10.0 mi SE 6.9 mph - N/A   Mostly Cloudy
6:53 AM 55.0 °F 51.1 °F 86% 30.08 in 6.0 mi SE 5.8 mph - N/A   Mostly Cloudy
7:53 AM 61.0 °F 52.0 °F 72% 30.10 in 9.0 mi SSE 5.8 mph - N/A   Overcast
8:53 AM 66.0 °F 53.1 °F 63% 30.11 in 10.0 mi SSE 4.6 mph - N/A   Scattered Clouds
9:53 AM 68.0 °F 55.0 °F 63% 30.11 in 10.0 mi West 3.5 mph - N/A   Overcast
10:53 AM 69.1 °F 55.9 °F 63% 30.10 in 10.0 mi Calm Calm - N/A   Partly Cloudy
11:53 AM 71.1 °F 54.0 °F 55% 30.08 in 10.0 mi West 6.9 mph - N/A   Clear
12:53 PM 71.1 °F 55.0 °F 57% 30.06 in 10.0 mi West 10.4 mph - N/A   Clear
1:53 PM 70.0 °F 55.9 °F 61% 30.06 in 10.0 mi West 11.5 mph - N/A   Clear
2:53 PM 69.1 °F 55.9 °F 63% 30.06 in 10.0 mi West 8.1 mph - N/A   Clear
3:53 PM 68.0 °F 57.9 °F 70% 30.06 in 10.0 mi West 8.1 mph - N/A   Clear
4:53 PM 64.0 °F 57.0 °F 78% 30.06 in 10.0 mi SSW 61.0 mph 70.2 mph N/A   Squalls
5:01 PM 64.4 °F 57.2 °F 77% 30.06 in 10.0 mi West 4.6 mph 70.2 mph N/A   Squalls
5:53 PM 62.1 °F 57.0 °F 84% 30.07 in 10.0 mi WSW 4.6 mph - N/A   Mostly Cloudy
6:53 PM 61.0 °F 57.0 °F 87% 30.07 in 10.0 mi Calm Calm - N/A   Partly Cloudy
7:53 PM 61.0 °F 57.9 °F 90% 30.08 in 10.0 mi NE 3.5 mph - N/A   Scattered Clouds
8:53 PM 61.0 °F 57.0 °F 87% 30.09 in 10.0 mi Calm Calm - N/A   Overcast
9:53 PM 61.0 °F 55.9 °F 83% 30.10 in 10.0 mi Calm Calm - N/A   Overcast
10:19 PM 60.8 °F 55.4 °F 82% 30.11 in 10.0 mi Calm Calm - N/A   Mostly Cloudy
10:53 PM 57.9 °F 55.0 °F 90% 30.10 in 10.0 mi Calm Calm - N/A   Mostly Cloudy
11:42 PM 59.0 °F 55.4 °F 88% 30.10 in 10.0 mi Calm Calm - N/A   Mostly Cloudy
11:53 PM 57.9 °F 55.0 °F 90% 30.09 in 10.0 mi Calm Calm - N/A   Scattered Clouds